| time (UTC) | temp F | wind direction | speed knots | gust knots | rain 1hr in | rain 24hr in | rain mn in | humidity % | barometer mb |
| 20260505221530 | 58 | 254 | 0.9 | 2.6 | 0.01 | 0.08 | 0.08 | 91 | 1007.6 |
| 20260505220032 | 59 | 246 | 1.7 | 3.5 | 0.02 | 0.08 | 0.08 | 92 | 1007.5 |
| 20260505214533 | 59 | 298 | 1.7 | 5.2 | 0.03 | 0.08 | 0.08 | 93 | 1007.9 |
| 20260505213030 | 58 | 279 | 0.0 | 2.6 | 0.06 | 0.08 | 0.08 | 94 | 1007.8 |
| 20260505211529 | 57 | 212 | 0.9 | 3.5 | 0.07 | 0.07 | 0.07 | 93 | 1007.7 |
| 20260505210033 | 57 | 121 | 4.3 | 7.0 | 0.06 | 0.06 | 0.06 | 92 | 1008.7 |
| 20260505204530 | 57 | 48 | 2.6 | 8.7 | 0.05 | 0.05 | 0.05 | 91 | 1008.3 |
| 20260505203028 | 60 | 129 | 8.7 | 13.0 | 0.02 | 0.02 | 0.02 | 79 | 1007.5 |
| 20260505201533 | 71 | 316 | 3.5 | 13.0 | 0.00 | 0.00 | 0.00 | 44 | 1006.4 |
| 20260505200034 | 72 | 45 | 3.5 | 12.2 | 0.00 | 0.00 | 0.00 | 42 | 1006.2 |
| 20260505194532 | 74 | 67 | 2.6 | 10.4 | 0.00 | 0.00 | 0.00 | 40 | 1006.0 |
| 20260505193032 | 75 | 50 | 4.3 | 12.2 | 0.00 | 0.00 | 0.00 | 39 | 1006.4 |
| 20260505191533 | 75 | 9 | 3.5 | 9.6 | 0.00 | 0.00 | 0.00 | 39 | 1006.1 |
| 20260505190036 | 76 | 71 | 3.5 | 11.3 | 0.00 | 0.00 | 0.00 | 38 | 1006.5 |
| 20260505184533 | 76 | 43 | 4.3 | 10.4 | 0.00 | 0.00 | 0.00 | 37 | 1006.9 |
| 20260505183037 | 76 | 30 | 5.2 | 11.3 | 0.00 | 0.00 | 0.00 | 37 | 1006.8 |
| 20260505181532 | 76 | 65 | 3.5 | 12.2 | 0.00 | 0.00 | 0.00 | 37 | 1007.2 |
| 20260505180045 | 75 | 38 | 3.5 | 15.6 | 0.00 | 0.00 | 0.00 | 39 | 1007.1 |
| 20260505174538 | 75 | 239 | 2.6 | 10.4 | 0.00 | 0.00 | 0.00 | 38 | 1007.5 |
| 20260505173031 | 75 | 59 | 5.2 | 13.0 | 0.00 | 0.00 | 0.00 | 38 | 1007.4 |
| 20260505171533 | 75 | 41 | 3.5 | 11.3 | 0.00 | 0.00 | 0.00 | 41 | 1007.3 |
| 20260505170030 | 75 | 40 | 5.2 | 16.5 | 0.00 | 0.00 | 0.00 | 40 | 1007.4 |
| 20260505164529 | 75 | 70 | 5.2 | 17.4 | 0.00 | 0.00 | 0.00 | 40 | 1007.6 |
| 20260505163033 | 74 | 66 | 3.5 | 15.6 | 0.00 | 0.00 | 0.00 | 44 | 1007.7 |
| 20260505161533 | 74 | 347 | 3.5 | 11.3 | 0.00 | 0.00 | 0.00 | 45 | 1008.0 |
| 20260505153030 | 72 | 110 | 3.5 | 11.3 | 0.00 | 0.00 | 0.00 | 46 | 1008.5 |
| 20260505151532 | 72 | 93 | 3.5 | 11.3 | 0.00 | 0.00 | 0.00 | 47 | 1008.3 |
| 20260505124536 | 62 | 57 | 2.6 | 7.0 | 0.00 | 0.00 | 0.00 | 61 | 1008.8 |
| 20260505123036 | 62 | 22 | 1.7 | 7.0 | 0.00 | 0.00 | 0.00 | 61 | 1009.3 |
| 20260505121530 | 62 | 47 | 2.6 | 10.4 | 0.00 | 0.00 | 0.00 | 61 | 1009.3 |
| 20260505120030 | 60 | 48 | 1.7 | 7.8 | 0.00 | 0.00 | 0.00 | 63 | 1009.1 |
| 20260505114532 | 59 | 78 | 1.7 | 9.6 | 0.00 | 0.00 | 0.00 | 65 | 1009.0 |
| 20260505113041 | 58 | 221 | 1.7 | 4.3 | 0.00 | 0.00 | 0.00 | 66 | 1008.9 |
| 20260505111533 | 57 | 0 | 0.9 | 4.3 | 0.00 | 0.00 | 0.00 | 67 | 1009.1 |
| 20260505101549 | 56 | 88 | 1.7 | 7.0 | 0.00 | 0.00 | 0.00 | 67 | 1008.4 |
| 20260505100055 | 56 | 111 | 2.6 | 9.6 | 0.00 | 0.00 | 0.00 | 68 | 1008.1 |
| 20260505094534 | 56 | 344 | 0.9 | 10.4 | 0.00 | 0.00 | 0.00 | 67 | 1007.9 |
| 20260505093031 | 56 | 32 | 1.7 | 6.1 | 0.00 | 0.00 | 0.00 | 67 | 1007.8 |
| 20260505091530 | 55 | 137 | 1.7 | 6.1 | 0.00 | 0.00 | 0.00 | 66 | 1007.9 |
| 20260505090029 | 55 | 334 | 1.7 | 7.0 | 0.00 | 0.00 | 0.00 | 66 | 1007.6 |
| 20260505084535 | 55 | 36 | 0.9 | 3.5 | 0.00 | 0.00 | 0.00 | 67 | 1007.7 |
| 20260505083031 | 55 | 325 | 0.9 | 5.2 | 0.00 | 0.00 | 0.00 | 66 | 1007.8 |
| 20260505081529 | 55 | 9 | 0.9 | 3.5 | 0.00 | 0.00 | 0.00 | 65 | 1007.9 |
| 20260505080029 | 55 | 309 | 0.9 | 5.2 | 0.00 | 0.00 | 0.00 | 64 | 1007.8 |
| 20260505074529 | 56 | 0 | 0.9 | 3.5 | 0.00 | 0.00 | 0.00 | 63 | 1007.9 |
| 20260505073036 | 57 | 57 | 1.7 | 5.2 | 0.00 | 0.00 | 0.00 | 61 | 1008.1 |
| 20260505071531 | 57 | 44 | 0.9 | 4.3 | 0.00 | 0.00 | 0.00 | 61 | 1008.1 |
| 20260505070030 | 57 | 0 | 2.6 | 9.6 | 0.00 | 0.00 | 0.00 | 60 | 1008.1 |
| 20260505064527 | 57 | 83 | 1.7 | 8.7 | 0.00 | 0.00 | 0.00 | 60 | 1008.2 |
| 20260505063027 | 57 | 51 | 1.7 | 7.0 | 0.00 | 0.00 | 0.00 | 59 | 1008.0 |
| 20260505061538 | 56 | 76 | 1.7 | 7.8 | 0.00 | 0.00 | 0.00 | 60 | 1008.0 |
| 20260505060031 | 56 | 38 | 2.6 | 8.7 | 0.00 | 0.00 | 0.00 | 60 | 1008.0 |
| 20260505054529 | 55 | 41 | 1.7 | 7.0 | 0.00 | 0.00 | 0.00 | 60 | 1008.1 |
| 20260505053038 | 55 | 34 | 1.7 | 4.3 | 0.00 | 0.00 | 0.00 | 60 | 1008.2 |
| 20260505051539 | 55 | 41 | 1.7 | 7.0 | 0.00 | 0.00 | 0.00 | 60 | 1008.7 |
| 20260505041530 | 55 | 73 | 1.7 | 5.2 | 0.00 | 0.00 | 0.00 | 59 | 1008.2 |
| 20260505040034 | 56 | 300 | 1.7 | 4.3 | 0.00 | 0.00 | 0.00 | 58 | 1008.2 |
| 20260505034529 | 56 | 304 | 0.9 | 5.2 | 0.00 | 0.00 | 0.00 | 57 | 1008.3 |
| 20260505033033 | 57 | 266 | 0.9 | 3.5 | 0.00 | 0.00 | 0.00 | 56 | 1008.2 |
| 20260505031538 | 58 | 309 | 1.7 | 6.1 | 0.00 | 0.00 | 0.00 | 54 | 1008.0 |
| 20260505030030 | 59 | 298 | 1.7 | 6.1 | 0.00 | 0.00 | 0.00 | 53 | 1008.3 |
| 20260505024532 | 59 | 9 | 1.7 | 9.6 | 0.00 | 0.00 | 0.00 | 51 | 1008.2 |
| 20260505023033 | 60 | 341 | 2.6 | 11.3 | 0.00 | 0.00 | 0.00 | 51 | 1008.3 |
| 20260505021536 | 60 | 63 | 1.7 | 7.0 | 0.00 | 0.00 | 0.00 | 51 | 1008.6 |
| 20260505020037 | 60 | 9 | 1.7 | 7.8 | 0.00 | 0.00 | 0.00 | 50 | 1008.3 |
| 20260505014530 | 60 | 344 | 4.3 | 13.0 | 0.00 | 0.00 | 0.00 | 49 | 1008.2 |
| 20260505013031 | 60 | 9 | 2.6 | 8.7 | 0.00 | 0.00 | 0.00 | 48 | 1008.4 |
| 20260505011536 | 61 | 27 | 2.6 | 8.7 | 0.00 | 0.00 | 0.00 | 47 | 1008.0 |
| 20260505010057 | 61 | 325 | 1.7 | 7.8 | 0.00 | 0.00 | 0.00 | 47 | 1007.9 |
| 20260505004530 | 61 | 44 | 2.6 | 7.8 | 0.00 | 0.00 | 0.00 | 47 | 1007.9 |
| 20260505003037 | 62 | 85 | 1.7 | 7.8 | 0.00 | 0.00 | 0.00 | 46 | 1007.6 |
| 20260505001530 | 62 | 9 | 1.7 | 7.8 | 0.00 | 0.00 | 0.00 | 44 | 1007.6 |
| 20260505000043 | 63 | 47 | 1.7 | 7.0 | 0.00 | 0.00 | 0.00 | 44 | 1007.4 |
| 20260504234534 | 64 | 0 | 1.7 | 7.8 | 0.00 | 0.00 | 0.00 | 43 | 1007.2 |
| 20260504233033 | 65 | 0 | 1.7 | 7.0 | 0.00 | 0.00 | 0.00 | 42 | 1007.4 |
| 20260504231532 | 66 | 65 | 2.6 | 6.1 | 0.00 | 0.00 | 0.00 | 39 | 1007.2 |
| 20260504230040 | 66 | 51 | 1.7 | 7.0 | 0.00 | 0.00 | 0.00 | 39 | 1007.1 |
| 20260504224529 | 67 | 221 | 1.7 | 6.1 | 0.00 | 0.00 | 0.00 | 38 | 1007.0 |
| 20260504223035 | 69 | 31 | 1.7 | 7.0 | 0.00 | 0.00 | 0.00 | 36 | 1006.5 |